| time (UTC) | temp F | wind direction | speed MPH | gust MPH | rain 1hr in | rain 24hr in | rain mn in | humidity % | barometer mb |
| 20260509203034 | 50 | 0.0 | 0.0 | 0.00 | 0.00 | 0.00 | 79 | 1025.6 | |
| 20260509202025 | 50 | 0.0 | 0.0 | 0.00 | 0.00 | 0.00 | 81 | 1025.7 | |
| 20260509201023 | 50 | 0.0 | 0.0 | 0.00 | 0.00 | 0.00 | 82 | 1025.6 | |
| 20260509200113 | 50 | 0.0 | 0.0 | 0.00 | 0.00 | 0.00 | 80 | 1025.5 | |
| 20260509195110 | 50 | 0.0 | 0.0 | 0.00 | 0.00 | 0.00 | 78 | 1025.5 | |
| 20260509194058 | 51 | 0.0 | 0.0 | 0.00 | 0.00 | 0.00 | 79 | 1025.4 | |
| 20260509193050 | 51 | 0.0 | 0.0 | 0.00 | 0.00 | 0.00 | 80 | 1025.4 | |
| 20260509192045 | 51 | 0.0 | 0.0 | 0.00 | 0.00 | 0.00 | 79 | 1025.3 | |
| 20260509184518 | 54 | 0.0 | 0.0 | 0.00 | 0.00 | 0.00 | 72 | 1025.2 | |
| 20260509183613 | 55 | 0.0 | 2.0 | 0.00 | 0.00 | 0.00 | 70 | 1025.3 | |
| 20260509182611 | 56 | 0.0 | 0.0 | 0.00 | 0.00 | 0.00 | 69 | 1025.2 | |
| 20260509181607 | 57 | 0.0 | 2.0 | 0.00 | 0.00 | 0.00 | 68 | 1025.2 | |
| 20260509180603 | 57 | 0.0 | 2.0 | 0.00 | 0.00 | 0.00 | 67 | 1025.2 | |
| 20260509175602 | 58 | 90 | 0.0 | 2.0 | 0.00 | 0.00 | 0.00 | 67 | 1025.3 |
| 20260509174557 | 58 | 87 | 1.0 | 2.0 | 0.00 | 0.00 | 0.00 | 66 | 1025.3 |
| 20260509173554 | 59 | 75 | 1.0 | 4.0 | 0.00 | 0.00 | 0.00 | 64 | 1025.3 |
| 20260509172551 | 59 | 71 | 1.0 | 4.0 | 0.00 | 0.00 | 0.00 | 64 | 1025.3 |
| 20260509171548 | 60 | 61 | 1.0 | 4.0 | 0.00 | 0.00 | 0.00 | 62 | 1025.3 |
| 20260509170546 | 60 | 45 | 2.0 | 4.0 | 0.00 | 0.00 | 0.00 | 61 | 1025.2 |
| 20260509165543 | 61 | 82 | 2.0 | 4.0 | 0.00 | 0.00 | 0.00 | 61 | 1025.2 |
| 20260509164537 | 61 | 70 | 2.0 | 4.0 | 0.00 | 0.00 | 0.00 | 60 | 1025.2 |
| 20260509163535 | 61 | 63 | 2.0 | 6.0 | 0.00 | 0.00 | 0.00 | 59 | 1025.3 |
| 20260509162530 | 61 | 71 | 2.0 | 6.0 | 0.00 | 0.00 | 0.00 | 58 | 1025.4 |
| 20260509161529 | 61 | 80 | 2.0 | 4.0 | 0.00 | 0.00 | 0.00 | 58 | 1025.6 |
| 20260509160523 | 61 | 61 | 1.0 | 6.0 | 0.00 | 0.00 | 0.00 | 58 | 1025.6 |
| 20260509155521 | 61 | 88 | 2.0 | 4.0 | 0.00 | 0.00 | 0.00 | 57 | 1025.7 |
| 20260509154517 | 61 | 66 | 1.0 | 4.0 | 0.00 | 0.00 | 0.00 | 58 | 1025.9 |
| 20260509153615 | 61 | 68 | 2.0 | 4.0 | 0.00 | 0.00 | 0.00 | 57 | 1026.0 |
| 20260509152612 | 61 | 97 | 2.0 | 4.0 | 0.00 | 0.00 | 0.00 | 57 | 1026.1 |
| 20260509151609 | 62 | 8 | 1.0 | 4.0 | 0.00 | 0.00 | 0.00 | 57 | 1026.2 |
| 20260509150606 | 62 | 62 | 2.0 | 6.0 | 0.00 | 0.00 | 0.00 | 57 | 1026.3 |
| 20260509145603 | 62 | 45 | 2.0 | 7.0 | 0.00 | 0.00 | 0.00 | 58 | 1026.4 |
| 20260509144601 | 62 | 85 | 2.0 | 4.0 | 0.00 | 0.00 | 0.00 | 57 | 1026.5 |
| 20260509143559 | 63 | 90 | 2.0 | 4.0 | 0.00 | 0.00 | 0.00 | 56 | 1026.6 |
| 20260509142554 | 62 | 73 | 3.0 | 6.0 | 0.00 | 0.00 | 0.00 | 55 | 1026.6 |
| 20260509141552 | 62 | 145 | 1.0 | 4.0 | 0.00 | 0.00 | 0.00 | 56 | 1026.6 |
| 20260509140550 | 63 | 71 | 3.0 | 6.0 | 0.00 | 0.00 | 0.00 | 55 | 1026.8 |
| 20260509135547 | 63 | 53 | 3.0 | 7.0 | 0.00 | 0.00 | 0.00 | 55 | 1026.8 |
| 20260509134543 | 62 | 75 | 2.0 | 6.0 | 0.00 | 0.00 | 0.00 | 56 | 1026.9 |
| 20260509133541 | 62 | 78 | 2.0 | 4.0 | 0.00 | 0.00 | 0.00 | 56 | 1027.1 |
| 20260509132537 | 62 | 64 | 1.0 | 4.0 | 0.00 | 0.00 | 0.00 | 58 | 1027.2 |
| 20260509131535 | 61 | 81 | 2.0 | 6.0 | 0.00 | 0.00 | 0.00 | 58 | 1027.2 |
| 20260509130533 | 61 | 81 | 2.0 | 4.0 | 0.00 | 0.00 | 0.00 | 60 | 1027.3 |
| 20260509125530 | 61 | 98 | 3.0 | 6.0 | 0.00 | 0.00 | 0.00 | 59 | 1027.3 |
| 20260509124526 | 61 | 75 | 2.0 | 6.0 | 0.00 | 0.00 | 0.00 | 60 | 1027.4 |
| 20260509123523 | 62 | 70 | 1.0 | 6.0 | 0.00 | 0.00 | 0.00 | 57 | 1027.4 |
| 20260509122522 | 62 | 80 | 2.0 | 4.0 | 0.00 | 0.00 | 0.00 | 59 | 1027.5 |
| 20260509121520 | 62 | 91 | 3.0 | 8.0 | 0.00 | 0.00 | 0.00 | 59 | 1027.6 |
| 20260509120615 | 61 | 67 | 3.0 | 7.0 | 0.00 | 0.00 | 0.00 | 59 | 1027.6 |
| 20260509115613 | 61 | 76 | 3.0 | 6.0 | 0.00 | 0.00 | 0.00 | 59 | 1027.6 |
| 20260509114609 | 62 | 87 | 3.0 | 7.0 | 0.00 | 0.00 | 0.00 | 55 | 1027.6 |
| 20260509113607 | 62 | 47 | 2.0 | 6.0 | 0.00 | 0.00 | 0.00 | 56 | 1027.6 |
| 20260509112603 | 61 | 75 | 1.0 | 4.0 | 0.00 | 0.00 | 0.00 | 58 | 1027.7 |
| 20260509111601 | 61 | 81 | 2.0 | 6.0 | 0.00 | 0.00 | 0.00 | 59 | 1027.9 |
| 20260509110558 | 61 | 106 | 1.0 | 4.0 | 0.00 | 0.00 | 0.00 | 60 | 1027.8 |
| 20260509105555 | 61 | 77 | 2.0 | 6.0 | 0.00 | 0.00 | 0.00 | 60 | 1027.9 |
| 20260509104552 | 62 | 35 | 1.0 | 2.0 | 0.00 | 0.00 | 0.00 | 58 | 1028.0 |
| 20260509103549 | 62 | 82 | 2.0 | 7.0 | 0.00 | 0.00 | 0.00 | 59 | 1027.9 |
| 20260509102546 | 62 | 92 | 2.0 | 6.0 | 0.00 | 0.00 | 0.00 | 59 | 1027.9 |
| 20260509101543 | 61 | 64 | 2.0 | 8.0 | 0.00 | 0.00 | 0.00 | 60 | 1027.9 |
| 20260509100540 | 61 | 82 | 2.0 | 7.0 | 0.00 | 0.00 | 0.00 | 62 | 1028.0 |
| 20260509095538 | 60 | 99 | 2.0 | 6.0 | 0.00 | 0.00 | 0.00 | 63 | 1028.0 |
| 20260509094535 | 59 | 67 | 1.0 | 4.0 | 0.00 | 0.00 | 0.00 | 66 | 1028.1 |
| 20260509093532 | 58 | 97 | 1.0 | 4.0 | 0.00 | 0.00 | 0.00 | 66 | 1028.1 |
| 20260509092530 | 58 | 85 | 2.0 | 6.0 | 0.00 | 0.00 | 0.00 | 68 | 1028.2 |
| 20260509091526 | 58 | 72 | 2.0 | 4.0 | 0.00 | 0.00 | 0.00 | 69 | 1028.1 |
| 20260509090523 | 57 | 0.0 | 0.0 | 0.00 | 0.00 | 0.00 | 70 | 1028.3 | |
| 20260509085517 | 57 | 0.0 | 0.0 | 0.00 | 0.00 | 0.00 | 71 | 1028.3 | |
| 20260509084613 | 56 | 0.0 | 0.0 | 0.00 | 0.00 | 0.00 | 74 | 1028.3 | |
| 20260509083611 | 56 | 0.0 | 0.0 | 0.00 | 0.00 | 0.00 | 75 | 1028.3 | |
| 20260509082608 | 56 | 0.0 | 0.0 | 0.00 | 0.00 | 0.00 | 75 | 1028.5 | |
| 20260509081605 | 55 | 0.0 | 0.0 | 0.00 | 0.00 | 0.00 | 75 | 1028.5 | |
| 20260509080602 | 55 | 0.0 | 0.0 | 0.00 | 0.00 | 0.00 | 75 | 1028.4 | |
| 20260509075600 | 55 | 0.0 | 0.0 | 0.00 | 0.00 | 0.00 | 78 | 1028.4 | |
| 20260509074557 | 55 | 0.0 | 0.0 | 0.00 | 0.00 | 0.00 | 76 | 1028.4 | |
| 20260509073553 | 54 | 0.0 | 0.0 | 0.00 | 0.00 | 0.00 | 78 | 1028.4 | |
| 20260509072550 | 54 | 0.0 | 0.0 | 0.00 | 0.00 | 0.00 | 78 | 1028.2 | |
| 20260509071547 | 54 | 0.0 | 0.0 | 0.00 | 0.00 | 0.00 | 78 | 1028.3 | |
| 20260509070545 | 54 | 0.0 | 0.0 | 0.00 | 0.00 | 0.00 | 79 | 1028.2 | |
| 20260509065541 | 53 | 0.0 | 0.0 | 0.00 | 0.00 | 0.00 | 80 | 1028.1 | |
| 20260509064539 | 53 | 0.0 | 0.0 | 0.00 | 0.00 | 0.00 | 80 | 1028.0 | |
| 20260509063536 | 53 | 0.0 | 0.0 | 0.00 | 0.00 | 0.00 | 81 | 1028.0 | |
| 20260509062534 | 52 | 0.0 | 0.0 | 0.00 | 0.00 | 0.00 | 82 | 1028.0 | |
| 20260509061530 | 52 | 0.0 | 0.0 | 0.00 | 0.00 | 0.00 | 82 | 1027.9 | |
| 20260509060527 | 51 | 0.0 | 0.0 | 0.00 | 0.00 | 0.00 | 83 | 1027.9 | |
| 20260509055524 | 51 | 0.0 | 0.0 | 0.00 | 0.00 | 0.00 | 84 | 1027.9 | |
| 20260509054522 | 51 | 0.0 | 0.0 | 0.00 | 0.00 | 0.00 | 85 | 1027.8 | |
| 20260509053520 | 50 | 0.0 | 0.0 | 0.00 | 0.00 | 0.00 | 86 | 1027.8 | |
| 20260509052516 | 50 | 0.0 | 0.0 | 0.00 | 0.00 | 0.00 | 87 | 1027.8 | |
| 20260509051613 | 50 | 0.0 | 0.0 | 0.00 | 0.00 | 0.00 | 87 | 1027.8 | |
| 20260509050611 | 50 | 0.0 | 0.0 | 0.00 | 0.00 | 0.00 | 88 | 1027.7 | |
| 20260509045610 | 50 | 0.0 | 0.0 | 0.00 | 0.00 | 0.00 | 88 | 1027.6 | |
| 20260509044605 | 49 | 0.0 | 0.0 | 0.00 | 0.00 | 0.00 | 88 | 1027.6 | |
| 20260509043602 | 49 | 0.0 | 0.0 | 0.00 | 0.00 | 0.00 | 89 | 1027.4 | |
| 20260509042559 | 49 | 0.0 | 0.0 | 0.00 | 0.00 | 0.00 | 89 | 1027.5 | |
| 20260509041557 | 49 | 0.0 | 0.0 | 0.00 | 0.00 | 0.00 | 89 | 1027.5 | |
| 20260509040556 | 49 | 0.0 | 0.0 | 0.00 | 0.00 | 0.00 | 89 | 1027.5 | |
| 20260509035552 | 49 | 0.0 | 0.0 | 0.00 | 0.00 | 0.00 | 89 | 1027.5 | |
| 20260509034550 | 49 | 0.0 | 0.0 | 0.00 | 0.00 | 0.00 | 88 | 1027.6 | |
| 20260509033547 | 49 | 0.0 | 0.0 | 0.00 | 0.00 | 0.00 | 89 | 1027.7 | |
| 20260509032545 | 49 | 0.0 | 0.0 | 0.00 | 0.00 | 0.00 | 90 | 1027.6 | |
| 20260509031541 | 49 | 0.0 | 0.0 | 0.00 | 0.00 | 0.00 | 90 | 1027.7 | |
| 20260509030538 | 49 | 0.0 | 0.0 | 0.00 | 0.00 | 0.00 | 90 | 1027.6 | |
| 20260509025535 | 49 | 0.0 | 0.0 | 0.00 | 0.00 | 0.00 | 90 | 1027.8 | |
| 20260509024532 | 49 | 0.0 | 0.0 | 0.00 | 0.00 | 0.00 | 90 | 1027.8 | |
| 20260509023530 | 49 | 0.0 | 0.0 | 0.00 | 0.00 | 0.00 | 90 | 1027.8 | |
| 20260509022526 | 49 | 0.0 | 0.0 | 0.00 | 0.00 | 0.00 | 90 | 1027.8 | |
| 20260509021523 | 49 | 0.0 | 0.0 | 0.00 | 0.00 | 0.00 | 90 | 1027.8 | |
| 20260509020520 | 49 | 0.0 | 0.0 | 0.00 | 0.00 | 0.00 | 90 | 1027.7 | |
| 20260509015517 | 49 | 0.0 | 0.0 | 0.00 | 0.00 | 0.00 | 90 | 1027.7 | |
| 20260509014615 | 49 | 0.0 | 0.0 | 0.00 | 0.00 | 0.00 | 90 | 1027.6 | |
| 20260509013612 | 49 | 0.0 | 0.0 | 0.00 | 0.00 | 0.00 | 90 | 1027.6 | |
| 20260509012609 | 49 | 0.0 | 0.0 | 0.00 | 0.00 | 0.00 | 90 | 1027.7 | |
| 20260509011606 | 49 | 0.0 | 0.0 | 0.00 | 0.00 | 0.00 | 90 | 1027.8 | |
| 20260509010603 | 49 | 0.0 | 0.0 | 0.00 | 0.00 | 0.00 | 90 | 1027.7 | |
| 20260509005603 | 49 | 0.0 | 0.0 | 0.00 | 0.00 | 0.00 | 90 | 1027.8 | |
| 20260509004554 | 49 | 0.0 | 0.0 | 0.00 | 0.00 | 0.00 | 89 | 1027.8 | |
| 20260509003552 | 49 | 0.0 | 0.0 | 0.00 | 0.00 | 0.00 | 89 | 1027.8 | |
| 20260509002550 | 49 | 0.0 | 0.0 | 0.00 | 0.00 | 0.00 | 89 | 1027.8 | |
| 20260509001547 | 49 | 0.0 | 0.0 | 0.00 | 0.00 | 0.00 | 89 | 1027.7 | |
| 20260509000545 | 49 | 0.0 | 0.0 | 0.00 | 0.00 | 0.00 | 89 | 1027.8 | |
| 20260508235540 | 50 | 0.0 | 0.0 | 0.00 | 0.00 | 0.00 | 89 | 1027.8 | |
| 20260508234537 | 50 | 0.0 | 0.0 | 0.00 | 0.00 | 0.00 | 89 | 1027.8 | |
| 20260508233536 | 50 | 0.0 | 0.0 | 0.00 | 0.00 | 0.00 | 89 | 1027.8 | |
| 20260508232533 | 50 | 0.0 | 0.0 | 0.00 | 0.00 | 0.00 | 89 | 1027.9 | |
| 20260508231529 | 50 | 0.0 | 0.0 | 0.00 | 0.00 | 0.00 | 89 | 1027.9 | |
| 20260508230528 | 50 | 0.0 | 0.0 | 0.00 | 0.00 | 0.00 | 88 | 1027.9 | |
| 20260508225523 | 50 | 0.0 | 0.0 | 0.00 | 0.00 | 0.00 | 88 | 1027.9 | |
| 20260508224520 | 50 | 0.0 | 0.0 | 0.00 | 0.00 | 0.00 | 88 | 1027.9 | |
| 20260508223518 | 50 | 0.0 | 0.0 | 0.00 | 0.00 | 0.00 | 88 | 1027.9 | |
| 20260508222514 | 50 | 0.0 | 0.0 | 0.00 | 0.00 | 0.00 | 87 | 1027.9 | |
| 20260508221612 | 50 | 0.0 | 0.0 | 0.00 | 0.00 | 0.00 | 87 | 1028.0 | |
| 20260508220609 | 50 | 0.0 | 0.0 | 0.00 | 0.00 | 0.00 | 87 | 1028.0 | |
| 20260508215606 | 50 | 0.0 | 0.0 | 0.00 | 0.00 | 0.00 | 88 | 1028.0 | |
| 20260508214603 | 50 | 0.0 | 0.0 | 0.00 | 0.00 | 0.00 | 88 | 1028.0 | |
| 20260508213602 | 50 | 0.0 | 0.0 | 0.00 | 0.00 | 0.00 | 88 | 1028.0 | |
| 20260508212559 | 50 | 0.0 | 0.0 | 0.00 | 0.00 | 0.00 | 88 | 1028.0 | |
| 20260508211555 | 50 | 0.0 | 0.0 | 0.00 | 0.00 | 0.00 | 88 | 1028.1 | |
| 20260508210553 | 50 | 0.0 | 0.0 | 0.00 | 0.00 | 0.00 | 87 | 1028.1 | |
| 20260508205549 | 50 | 0.0 | 0.0 | 0.00 | 0.00 | 0.00 | 87 | 1028.1 | |
| 20260508204547 | 50 | 0.0 | 0.0 | 0.00 | 0.00 | 0.00 | 87 | 1028.1 |